Home   Weather   Ahmedabad   Past weeks

Flag for India Past Weather in Ahmedabad, Gujarat, India — Yesterday and Last 2 Weeks

75 °F


Feels Like: 76 °F
Forecast: 68 / 88 °F
Wind: 5 mph from North

Location: Ahmadabad Airport

Current Time: Oct 24, 2016 at 8:56:01 AM

Latest Report: Oct 24, 2016 at 8:00 AM

Visibility: 2 mi

Pressure: 29.92 "Hg

Humidity: 78%

Dew Point: 68 °F

Location of AhmedabadLocation

Past Weather in Ahmedabad — Graph


Ahmedabad Temperature Yesterday

Maximum temperature yesterday: 91 °F (at 1:00 PM)
Minimum temperature yesterday: 72 °F (at 5:00 AM)
Average temperature yesterday: 81 °F

High & Low Weather Summary for the Past Weeks

High97 °F (Oct 17, 3:00 PM)94% (Oct 9, 7:30 AM)29.95 "Hg (Oct 9, 7:30 AM)
Low70 °F (Oct 20, 6:30 AM)26% (Oct 18, 3:00 PM)29.71 "Hg (Oct 9, 4:00 PM)
Average83 °F64%29.83 "Hg
* Reported Oct 9 7:30 AM — Oct 24 7:30 AM, Ahmedabad, Weather by CustomWeather, © 2016

Note: Actual official high and low records may vary slightly from our data, if they occured in-between our weather recording intervals... More about our weather records


Ahmedabad Weather History for the Previous 24 Hours

Scroll right to see more
Time TempWeatherWind HumidityBarometerVisibility
7:30 AM
Mon, Oct 24
73 °FFog.No wind83%29.89 "Hg1 mi
7:00 AM73 °FFog.No wind78%29.89 "Hg2 mi
6:30 AM73 °FPassing clouds.No wind78%29.86 "Hg2 mi
6:00 AM75 °FPassing clouds.5 mph74%29.86 "Hg2 mi
5:30 AM75 °FPassing clouds.6 mph74%29.83 "Hg2 mi
5:00 AM75 °FPassing clouds.3 mph74%29.83 "Hg2 mi
4:30 AM77 °FPassing clouds.No wind69%29.83 "Hg2 mi
4:00 AM77 °FPassing clouds.3 mph65%29.83 "Hg2 mi
3:30 AM77 °FPassing clouds.No wind65%29.83 "Hg2 mi
3:00 AM77 °FPassing clouds.No wind61%29.83 "Hg2 mi
2:30 AM77 °FPassing clouds.No wind61%29.83 "Hg2 mi
2:00 AM79 °FPassing clouds.3 mph61%29.86 "Hg2 mi
1:30 AM81 °FPassing clouds.5 mph54%29.86 "Hg2 mi
1:00 AM79 °FPassing clouds.No wind54%29.86 "Hg2 mi
12:30 AM81 °FPassing clouds.No wind51%29.86 "Hg2 mi
12:00 AM79 °FPassing clouds.No wind58%29.86 "Hg2 mi
11:30 PM
Sun, Oct 23
81 °FPassing clouds.No wind58%29.86 "Hg2 mi
11:00 PM81 °FPassing clouds.No wind54%29.89 "Hg2 mi
10:30 PM81 °FPassing clouds.No wind54%29.89 "Hg2 mi
10:00 PM81 °FPassing clouds.No wind62%29.89 "Hg2 mi
9:30 PM81 °FPassing clouds.No wind58%29.89 "Hg2 mi
9:00 PM79 °FPassing clouds.No wind70%29.86 "Hg2 mi
8:30 PM82 °FPassing clouds.No wind58%29.86 "Hg2 mi
8:00 PM82 °FPassing clouds.No wind58%29.86 "Hg2 mi
7:00 PM82 °FPassing clouds.No wind58%29.83 "Hg2 mi
6:30 PM86 °FScattered clouds.2 mph52%29.83 "Hg2 mi
5:30 PM90 °FPassing clouds.3 mph43%29.83 "Hg3 mi
4:30 PM90 °FScattered clouds.5 mph41%29.83 "Hg4 mi
2:30 PM90 °FScattered clouds.6 mph41%29.83 "Hg4 mi
2:00 PM90 °FScattered clouds.8 mph38%29.86 "Hg4 mi
1:30 PM90 °FScattered clouds.3 mph43%29.86 "Hg4 mi
1:00 PM91 °FPassing clouds.3 mph41%29.89 "Hg4 mi
12:30 PM90 °FPassing clouds.3 mph46%29.89 "Hg4 mi
12:00 PM90 °FPassing clouds.5 mph46%29.92 "Hg4 mi
11:30 AM88 °FPassing clouds.No wind52%29.92 "Hg4 mi
11:00 AM86 °FScattered clouds.3 mph55%29.95 "Hg3 mi
10:30 AM84 °FScattered clouds.3 mph55%29.95 "Hg2 mi
10:00 AM82 °FScattered clouds.5 mph62%29.95 "Hg2 mi
9:30 AM81 °FScattered clouds.No wind66%29.95 "Hg2 mi
9:00 AM79 °FHaze.No wind70%29.95 "Hg2 mi
8:30 AM77 °FHaze.No wind74%29.92 "Hg2 mi
8:00 AM75 °FScattered clouds.No wind74%29.92 "Hg2 mi
Weather by CustomWeather, © 2016

See weather overviewHow to use our weather pages